Location: Maiden_LMO
(35.5760°N, 81.2120°W)
Time: 19:16:17
(UTC-05:00)

Daily predictions for brighter satellites

Satellite Brightness Start Highest point End
(mag) Time Altitude Azimuth Time Altitude Azimuth Time Altitude Azimuth
Nadezhda 1 Rocket 3.9 18:33:49 10° N 18:39:55 82° E 18:45:59 10° S
Cosmos 1140 Rocket 3.8 18:39:37 10° S 18:44:26 43° ESE 18:49:17 10° NNE
DELTA 2 R/B (1) 3.7 18:39:16 10° WNW 18:44:53 68° NNE 18:50:28 10° E
Cosmos 1461 2.8 18:41:16 10° NNW 18:45:17 70° ENE 18:49:25 10° SE
Cosmos 1602 4.3 18:44:11 10° SSE 18:47:44 36° E 18:51:19 10° NNE
Resurs 01 Rocket 3.0 18:45:21 10° ESE 18:48:24 19° ENE 18:51:28 10° NNE
CENTAUR R/B 4.2 18:41:00 10° NW 18:48:43 51° WSW 18:56:43 10° S
Cosmos 1300 Rocket 4.1 18:45:10 10° SSE 18:49:13 38° E 18:53:19 10° NNE
OAO 3 Copernicus 4.4 18:46:35 10° W 18:51:41 78° S 18:56:45 10° ESE
Cosmos 2292 Rocket 4.2 18:47:15 10° S 18:52:06 72° E 18:58:42 10° N
Cosmos 614 Rocket 4.4 18:47:40 10° SSE 18:52:19 37° ESE 18:56:58 10° NE
Cosmos 1833 4.2 18:48:34 10° SSW 18:54:15 75° ESE 18:59:55 10° NNE
Abrixas rocket 3.3 18:51:26 10° SSW 18:54:22 29° SE 18:56:51 13° ENE
ALOS 3.0 18:52:09 10° SE 18:56:15 31° ENE 19:00:22 10° N
COSMO-SKYMED 1 3.8 18:52:59 10° N 18:57:08 46° WNW 19:01:16 10° SSW
Cosmos 2181 Rocket 4.2 18:53:51 10° N 18:59:54 49° E 19:06:01 10° SSE
Spot 2 Rocket 4.4 18:56:30 10° SE 19:00:42 27° ENE 19:04:57 10° NNE
FREGAT/IRIS 2.7 19:00:53 10° SSE 19:03:53 52° ENE 19:06:55 10° N
NOSS 8 (E) 4.4 19:01:18 10° SSW 19:04:45 73° ESE 19:08:20 10° NE
SL-16 R/B 2.8 18:59:57 10° NNW 19:05:32 62° WSW 19:11:06 10° S
Cosmos 1340 2.6 19:04:26 10° N 19:08:11 61° E 19:11:55 10° SSE
Cosmos 1709 Rocket 4.0 19:05:12 10° S 19:11:27 89° W 19:17:38 10° N
Cosmos 1850 Rocket 4.2 19:06:28 10° S 19:11:31 49° ESE 19:16:39 10° NNE
Cosmos 2074 Rocket 4.5 19:06:02 10° SSE 19:11:39 37° E 19:17:18 10° NNE
Cosmos 2184 Rocket 4.5 19:08:53 10° SSE 19:14:36 37° E 19:20:17 10° NNE
FengYun 1-2 T 4.3 19:12:56 10° SSE 19:18:14 54° ENE 19:23:35 10° N
NOSS 8 (H) 4.3 19:15:26 10° SSW 19:18:51 73° ESE 19:21:51 13° NE
Helios 1B rocket 3.5 19:18:13 18° ENE 19:19:53 23° E 19:23:12 10° SSE
HJ-1C 3.5 19:17:44 10° SSE 19:21:01 52° ENE 19:24:19 10° N
OTV 4 2.7 19:20:18 10° S 19:21:31 12° SSE 19:21:31 12° SSE
Cosmos 2322 Rocket 3.5 19:16:37 10° NW 19:21:52 42° WSW 19:27:06 10° S
SJ-6B 2.8 19:18:18 10° SSE 19:22:20 85° W 19:26:18 10° NNW
Okean 1 Rocket 3.0 19:19:30 10° S 19:23:57 74° E 19:28:27 10° N
Tiangong 2 1.5 19:21:56 10° WNW 19:24:57 54° SSW 19:26:31 24° SE
FENGYUN 3A 3.6 19:20:43 10° SSE 19:26:03 65° ENE 19:31:26 10° N
Genesis I 4.2 19:24:16 10° N 19:27:40 28° NE 19:28:05 27° ENE
Meteor 1-19 Rocket 4.2 19:24:28 10° N 19:30:11 80° E 19:35:58 10° S
Hubble Space Telescope 2.7 19:27:53 10° SSW 19:30:28 16° SSE 19:31:23 15° SE
Gbstr 26 Del rocket 3.7 19:30:41 10° WSW 19:34:21 42° NW 19:36:53 17° NNE
Cosmos 2322 3.6 19:32:35 10° NNW 19:38:20 82° ENE 19:44:02 10° SSE
Cosmos 1238 Rocket 2.9 19:36:19 10° NNW 19:39:11 51° W 19:42:07 10° S
Atlas Centaur 2 4.3 19:40:34 10° S 19:42:42 12° SSE 19:43:34 11° SE
CZ-2D R/B 3.4 19:43:32 47° E 19:43:38 47° ENE 19:47:18 10° N
GPS 2-04 Rocket1 2.9 19:41:13 10° WSW 19:45:28 64° SSE 19:46:29 47° ESE
Cosmos 2285 Rocket 4.4 19:39:46 10° N 19:45:47 40° ENE 19:47:51 32° ESE
GEOS 3 Rocket 4.0 19:41:10 10° NNE 19:46:23 66° NW 19:51:36 10° SW
Cosmos 1025 Rocket 3.1 19:42:39 10° N 19:46:58 55° E 19:48:42 33° SE
H-2A R/B 2.5 19:46:25 20° SSE 19:48:53 81° E 19:52:37 10° N
Cosmos 1536 3.2 19:45:43 10° SSW 19:49:39 63° W 19:53:37 10° N
SL-19 R/B 4.3 19:45:42 10° SSE 19:51:19 90° W 19:57:17 10° NNW
Okean 1-7 Rocket 3.5 19:48:39 10° N 19:53:12 90° W 19:57:39 10° S
COSMOS 2428 2.7 19:48:06 10° NNW 19:53:41 56° ENE 19:55:38 38° ESE
Meteor 1-23 Rocket 4.1 19:48:09 10° N 19:53:57 74° E 19:59:40 10° SSE
Cosmos 2237 4.1 19:48:15 10° NNW 19:53:59 73° ENE 19:57:28 24° SSE
Cosmos 2333 4.4 19:49:29 10° N 19:55:03 50° ENE 19:56:21 42° ESE
Meteor 2-4 Rocket 3.6 19:50:43 10° N 19:56:16 85° W 20:01:38 10° S
SL-08 ROCKET BODY 4.5 19:50:26 10° S 19:56:36 82° W 20:02:49 10° N
Cosmos 2237 Rocket 3.8 19:53:26 10° N 19:55:53 18° NE 19:55:53 18° NE
Cosmos 2219 3.8 20:05:27 10° SW 20:11:06 58° WNW 20:16:46 10° NNE
Cosmos 2360 Rocket 3.3 20:07:25 10° NW 20:12:42 42° WSW 20:17:59 10° S
Cosmos 2219 Rocket 2.7 20:09:18 10° N 20:13:35 40° NNE 20:13:35 40° NNE
Cosmos 2227 Rocket 3.9 20:12:01 10° S 20:13:25 18° S 20:13:25 18° S
Cosmos 1570 Rocket 4.5 20:16:10 10° NNW 20:21:18 59° WSW 20:24:14 25° S
Resurs 01 Rocket 3.2 20:20:38 10° SSW 20:24:36 33° W 20:28:37 10° NNW
DELTA 2 R/B (1) 4.0 20:25:52 10° WNW 20:31:19 52° SSW 20:31:31 52° SSW
ATLAS CENTAUR R/B 3.6 20:28:17 10° SW 20:30:46 25° WSW 20:30:46 25° WSW
BREEZE-M DEB (TANK) 4.3 20:30:16 10° NW 20:34:25 65° NE 20:35:01 63° ENE
Cosmos 2333 Rocket 3.2 20:42:49 10° NNW 20:46:14 37° N 20:46:14 37° N
USA 229 DEB 3.7 20:47:21 10° NNW 20:54:32 81° WSW 20:54:32 81° WSW
USA 229 3.7 20:47:27 10° NNW 20:54:36 82° WSW 20:54:36 82° WSW
